Regional Weather Roundup
Issued by NWS Burlington, VT

Home | Current Version | Previous Version | Text Only | Print | Product List | Glossary On
Versions: 1 2 3 4 5 6 7 8 9 10 11 12 13 14 15 16 17 18 19 20 21 22 23 24 25 26 27 28 29 30 31 32 33 34 35 36 37 38 39 40 41 42 43 44 45 46 47 48 49 50
000
ASUS41 KBTV 260110
RWRBTV
VERMONT REGIONAL WEATHER ROUNDUP
NATIONAL WEATHER SERVICE BURLINGTON VT
900 PM EDT SAT MAR 25 2017

NOTE: "FAIR" INDICATES FEW OR NO CLOUDS BELOW 12,000 FEET WITH NO
SIGNIFICANT WEATHER AND/OR OBSTRUCTIONS TO VISIBILITY.

* THESE REPORTS ARE NOT UNDER NWS QUALITY CONTROL AND/OR DO NOT
  REPORT WEATHER SUCH AS PRECIPITATION AND FOG.

VTZ001>019-260200-
_____VERMONT_____


CITY           SKY/WX    TMP DP  RH WIND       PRES   REMARKS
BURLINGTON     CLEAR     28  15  58 N5        30.46R WCI  23
MONTPELIER     CLEAR     28  23  81 NW6       30.43R WCI  22
MORRISVILLE    CLEAR     27  20  75 E5        30.45R WCI  22
ST. JOHNSBURY*   N/A     29  22  75 MISG      30.40R
LYNDONVILLE*   FAIR      28  16  61 W7        30.41R WCI  20
MIDDLEBURY*    FAIR      28  22  78 CALM      30.44R
RUTLAND*       PTCLDY    29  26  89 CALM      30.42R
SPRINGFIELD    PTCLDY    34  27  75 VRB5      30.41R WCI  30
HIGHGATE*      FAIR      22  19  85 CALM      30.48R
NEWPORT*       FAIR      26  14  60 NW5       30.44R WCI  20
BENNINGTON     CLOUDY    32  30  92 CALM      30.37R FOG
SUTTON*          N/A     25 N/A N/A MISG        N/A

_____LAKE CHAMPLAIN_____


CITY           SKY/WX    TMP DP  RH WIND       PRES   REMARKS
BURTON ISLAND*   N/A     27  19  74 SE1         N/A
COLCHESTER RF*   N/A     32  19  59 N6          N/A  WCI  26
DIAMOND ISL*     N/A     32  21  64 NW12        N/A  WCI  23

$$

NYZ007-026>031-035-052-083-087-260200-
_____NORTHERN NEW YORK_____


CITY           SKY/WX    TMP DP  RH WIND       PRES   REMARKS
PLATTSBURGH    CLEAR     26  20  77 CALM      30.47R
SARANAC LAKE   CLEAR     23  22  96 CALM      30.38R
MASSENA        CLEAR     27  24  89 CALM      30.48R
POTSDAM*       CLEAR     28  28 100 CALM      30.46R
WATERTOWN      CLOUDY    34  28  79 NE8       30.43R WCI  27
FT DRUM        CLOUDY    34  26  75 NE6       30.41R WCI  28
ALBANY         CLOUDY    37  29  72 N6        30.42R
GLENS FALLS    CLOUDY    34  26  72 N6        30.43R WCI  29

$$
NHZ002-005-011-260200-
_____NEW HAMPSHIRE_____


CITY           SKY/WX    TMP DP  RH WIND       PRES   REMARKS
LEBANON        CLEAR     32  27  81 NE6       30.40R WCI  26
KEENE          CLOUDY    33  32  96 E3        30.39R FOG
MT WASHINGTON  PTCLDY    16 -26  14 N45         N/A  WCI  -8
PLYMOUTH       FAIR      34  25  68 NW5       30.38R WCI  30
WHITEFIELD     CLEAR     24  21  88 CALM      30.38R

$$

_____REGIONAL QUEBEC LOCATIONS_____


CITY           SKY/WX    TMP DP  RH WIND       PRES   REMARKS
MONTREAL       PTCLDY    27  18  69 CALM      30.48R
QUEBEC CITY    CLEAR     27   0  31 N6        30.46R WCI  20
SHERBROOKE     CLEAR     21   7  53 VRB2      30.42R

_____REGIONAL ONTARIO LOCATIONS_____


CITY           SKY/WX    TMP DP  RH WIND       PRES   REMARKS
OTTAWA         PTCLDY    28  18  64 CALM      30.45R

______KEY______
VSB  - VISIBILITY IN MILES
WCI  - WIND CHILL INDEX
HX   - HEAT INDEX
$$
NNNN




USA.gov is the U.S. government's official web portal to all federal, state and local government web resources and services.